Location: Civry
(47.2902°N, 4.6156°E)
Time: 10:32:42
(UTC+00:00)

Cosmos 2360 Rocket - Pass Details

Date: 09 April 2020
Orbit: 834 x 845 km, 71.0° (Epoch: 25 May)

Event Time Altitude Azimuth Distance (km) Brightness Sun altitude
Rises 21:29:22 0° 339° (NNW) 3,394 6.5 -27.3°
Reaches altitude 10° 21:33:00 10° 2° (N) 2,458 5.2 -27.7°
Maximum altitude 21:36:09 15° 37° (NE) 2,125 4.4 -28.0°
Enters shadow 21:37:55 13° 57° (ENE) 2,234 4.3 -28.2°
